Regional Weather Roundup
Issued by NWS

Home | Current Version | Previous Version | Text Only | Print | Product List | Glossary On
Versions: 1 2 3 4 5 6 7 8 9 10 11 12 13 14 15 16 17 18 19 20 21 22 23 24 25 26 27 28 29 30 31 32 33 34 35 36 37 38 39 40 41 42 43 44 45 46 47 48 49 50
000
ASUS43 KLMK 180910
RWRKY
KENTUCKY REGIONAL WEATHER ROUNDUP
NATIONAL WEATHER SERVICE LOUISVILLE KY
400 AM EST SUN FEB 18 2018

NOTE "FAIR" INDICATES FEW OR NO CLOUDS BELOW 12,000 FEET
WITH NO SIGNIFICANT WEATHER AND/OR OBSTRUCTIONS TO VISIBILITY.

KYZ001>023-026-027-061>063-070>075-181000-
WESTERN AND SOUTH CENTRAL KENTUCKY

CITY           SKY/WX    TMP DP  RH WIND       PRES   REMARKS
PADUCAH        FOG       30  27  88 CALM      30.30R VSB 1/4
HENDERSON      FAIR      30  29  96 CALM      30.31R FOG
OWENSBORO      FAIR      34  30  86 CALM      30.31R
HOPKINSVILLE   FOG       30  30 100 CALM      30.29R VSB 1/2
BOWLING GREEN  FAIR      34  32  92 CALM      30.30S
GLASGOW        FAIR     N/A N/A N/A CALM      30.29S
$$

KYZ024-025-028>034-038-045-046-053-181000-
NORTH CENTRAL KENTUCKY

CITY           SKY/WX    TMP DP  RH WIND       PRES   REMARKS
LOUISVILLE/SDF FAIR      35  30  82 CALM      30.30R
LOUISVILLE/LOU FAIR      32  30  92 CALM      30.30R
FORT KNOX      MOCLDY    34  30  86 CALM      30.29R
$$

KYZ035>037-039>044-047>052-055>060-089>105-181000-
NORTHEAST KENTUCKY

CITY           SKY/WX    TMP DP  RH WIND       PRES   REMARKS
LEXINGTON      FAIR      35  29  78 W6        30.28R WCI  30
COVINGTON      MOCLDY    33  30  88 NW7       30.26R WCI  27
FRANKFORT      FAIR      33  28  81 CALM      30.27R
$$

KYZ054-064>069-076>088-106>120-181000-
SOUTHEAST KENTUCKY

CITY           SKY/WX    TMP DP  RH WIND       PRES   REMARKS
JACKSON        CLOUDY    38  32  79 VRB5      30.26R WCI  34
LONDON         MOCLDY    37  32  82 W3        30.27R
SOMERSET       FAIR      36  32  87 CALM      30.30R
MIDDLESBORO    FAIR      41  35  77 NW7       30.27S
MONTICELLO     NOT AVBL
$$





USA.gov is the U.S. government's official web portal to all federal, state and local government web resources and services.